VLG7WT LEAS-LEPA

Flight info

Callsign VLG7WT
Flight time 1h 26m
Altitude 33000
Route LEVNO Q210 SNR DCT CALCE DCT BLV M601 BCN DCT LORES
Aircraft A320/M-SDE3FGHIRWY/LB1

Departure

Time 2026-05-06 16:06
Airport Asturias Airport (LEAS)

Arrival

Time 2026-05-06 17:32
Airport Palma de Mallorca Airport (LEPA)
Time Latitude Longitude Altitude Speed Heading
2026-05-06 15:55 43.56014 -6.03270 426 ft 0 kts 243°
2026-05-06 15:59 43.56014 -6.03271 426 ft 0 kts 246°
2026-05-06 15:59 43.56018 -6.03275 416 ft 1 kts 297°
2026-05-06 16:00 43.56029 -6.03272 420 ft 4 kts 18°
2026-05-06 16:00 43.56067 -6.03244 423 ft 6 kts 25°
2026-05-06 16:00 43.56110 -6.03208 418 ft 11 kts 53°
2026-05-06 16:00 43.56101 -6.03077 428 ft 18 kts 107°
2026-05-06 16:01 43.56064 -6.02916 414 ft 17 kts 111°
2026-05-06 16:01 43.56026 -6.02768 422 ft 16 kts 108°
2026-05-06 16:01 43.55995 -6.02633 421 ft 14 kts 108°
2026-05-06 16:01 43.55966 -6.02509 423 ft 13 kts 108°
2026-05-06 16:02 43.55944 -6.02402 422 ft 10 kts 96°
2026-05-06 16:02 43.55961 -6.02325 423 ft 5 kts 65°
2026-05-06 16:02 43.55964 -6.02315 423 ft 1 kts 65°
2026-05-06 16:02 43.55965 -6.02312 426 ft 0 kts 65°
2026-05-06 16:03 43.55979 -6.02271 426 ft 10 kts 65°
2026-05-06 16:04 43.56037 -6.02205 416 ft 10 kts 19°
2026-05-06 16:04 43.56064 -6.02224 421 ft 5 kts 290°
2026-05-06 16:04 43.56065 -6.02229 419 ft 0 kts 288°
2026-05-06 16:04 43.56067 -6.02237 418 ft 1 kts 288°
2026-05-06 16:05 43.56071 -6.02256 421 ft 4 kts 288°
2026-05-06 16:05 43.56125 -6.02481 419 ft 60 kts 288°
2026-05-06 16:05 43.56332 -6.03355 418 ft 129 kts 288°
2026-05-06 16:05 43.56657 -6.04719 687 ft 158 kts 290°
2026-05-06 16:06 43.57019 -6.06205 1410 ft 166 kts 290°
2026-05-06 16:06 43.57375 -6.07718 2204 ft 167 kts 290°
2026-05-06 16:06 43.57745 -6.09295 2712 ft 180 kts 290°
2026-05-06 16:06 43.58163 -6.10999 3140 ft 195 kts 295°
2026-05-06 16:07 43.59051 -6.12467 3554 ft 211 kts 329°
2026-05-06 16:07 43.60510 -6.12923 4073 ft 226 kts
2026-05-06 16:07 43.61926 -6.11944 4697 ft 239 kts 47°
2026-05-06 16:07 43.62701 -6.09869 5320 ft 254 kts 73°
2026-05-06 16:08 43.63122 -6.07451 5878 ft 270 kts 79°
2026-05-06 16:08 43.63449 -6.04815 6652 ft 278 kts 81°
2026-05-06 16:08 43.63743 -6.02193 7455 ft 282 kts 81°
2026-05-06 16:08 43.64054 -5.99499 8271 ft 287 kts 81°
2026-05-06 16:09 43.64392 -5.96754 9105 ft 292 kts 81°
2026-05-06 16:09 43.64751 -5.93980 9936 ft 296 kts 80°
2026-05-06 16:09 43.65130 -5.91142 10500 ft 308 kts 80°
2026-05-06 16:09 43.65512 -5.88317 10896 ft 325 kts 80°
2026-05-06 16:10 43.65942 -5.85178 11333 ft 340 kts 79°
2026-05-06 16:10 43.66392 -5.81936 11977 ft 346 kts 79°
2026-05-06 16:10 43.66846 -5.78650 12737 ft 350 kts 79°
2026-05-06 16:10 43.67302 -5.75335 13510 ft 353 kts 79°
2026-05-06 16:11 43.67762 -5.71986 14177 ft 357 kts 79°
2026-05-06 16:11 43.68223 -5.68602 14825 ft 360 kts 79°
2026-05-06 16:11 43.68687 -5.65184 15488 ft 363 kts 79°
2026-05-06 16:11 43.69153 -5.61752 16151 ft 365 kts 79°
2026-05-06 16:12 43.69623 -5.58286 16812 ft 368 kts 79°
2026-05-06 16:12 43.70092 -5.54798 17460 ft 371 kts 79°
2026-05-06 16:12 43.70403 -5.52473 17889 ft 373 kts 79°
2026-05-06 16:12 43.70875 -5.48940 18495 ft 376 kts 79°
2026-05-06 16:13 43.71506 -5.44206 19216 ft 379 kts 79°
2026-05-06 16:13 43.71985 -5.40612 19759 ft 382 kts 79°
2026-05-06 16:13 43.72280 -5.36944 20290 ft 386 kts 89°
2026-05-06 16:13 43.72093 -5.33239 20824 ft 388 kts 100°
2026-05-06 16:14 43.71695 -5.30772 21179 ft 390 kts 105°
2026-05-06 16:14 43.71009 -5.27120 21698 ft 394 kts 105°
2026-05-06 16:14 43.70324 -5.23437 22225 ft 397 kts 105°
2026-05-06 16:14 43.69639 -5.19723 22756 ft 400 kts 105°
2026-05-06 16:15 43.68952 -5.15987 23268 ft 404 kts 105°
2026-05-06 16:15 43.68266 -5.12260 23741 ft 407 kts 105°
2026-05-06 16:15 43.67558 -5.08417 24155 ft 410 kts 105°
2026-05-06 16:15 43.66852 -5.04590 24556 ft 412 kts 105°
2026-05-06 16:16 43.66147 -5.00792 24947 ft 415 kts 105°
2026-05-06 16:16 43.65425 -4.96923 25329 ft 418 kts 105°
2026-05-06 16:16 43.64697 -4.93028 25710 ft 420 kts 105°
2026-05-06 16:16 43.63964 -4.89102 26082 ft 423 kts 104°
2026-05-06 16:17 43.63227 -4.85159 26441 ft 426 kts 104°
2026-05-06 16:17 43.62485 -4.81195 26794 ft 428 kts 105°
2026-05-06 16:17 43.61735 -4.77204 27142 ft 431 kts 105°
2026-05-06 16:17 43.60977 -4.73182 27477 ft 434 kts 105°
2026-05-06 16:18 43.60214 -4.69137 27810 ft 436 kts 105°
2026-05-06 16:18 43.59444 -4.65069 28134 ft 439 kts 105°
2026-05-06 16:18 43.58671 -4.60985 28455 ft 442 kts 105°
2026-05-06 16:18 43.57891 -4.56879 28775 ft 444 kts 105°
2026-05-06 16:19 43.57107 -4.52742 29078 ft 447 kts 105°
2026-05-06 16:19 43.56320 -4.48584 29377 ft 449 kts 105°
2026-05-06 16:19 43.55524 -4.44406 29663 ft 452 kts 105°
2026-05-06 16:19 43.54716 -4.40207 29947 ft 454 kts 105°
2026-05-06 16:20 43.53901 -4.35984 30201 ft 457 kts 105°
2026-05-06 16:20 43.53082 -4.31745 30421 ft 459 kts 105°
2026-05-06 16:20 43.52261 -4.27485 30635 ft 461 kts 105°
2026-05-06 16:20 43.51434 -4.23206 30862 ft 463 kts 105°
2026-05-06 16:21 43.50599 -4.18912 31069 ft 465 kts 105°
2026-05-06 16:21 43.49757 -4.14599 31270 ft 467 kts 105°
2026-05-06 16:21 43.48923 -4.10322 31470 ft 469 kts 105°
2026-05-06 16:21 43.48072 -4.05978 31739 ft 469 kts 105°
2026-05-06 16:22 43.47222 -4.01649 32025 ft 469 kts 105°
2026-05-06 16:22 43.46372 -3.97318 32305 ft 469 kts 105°
2026-05-06 16:22 43.45521 -3.92996 32574 ft 469 kts 105°
2026-05-06 16:22 43.44684 -3.88661 32846 ft 469 kts 104°
2026-05-06 16:23 43.43945 -3.84281 33004 ft 469 kts 102°
2026-05-06 16:23 43.43310 -3.79957 33039 ft 454 kts 101°
2026-05-06 16:23 43.42234 -3.71894 33032 ft 453 kts 100°
2026-05-06 16:24 43.41058 -3.63384 33031 ft 453 kts 101°
2026-05-06 16:24 43.39795 -3.54906 33042 ft 453 kts 102°
2026-05-06 16:25 43.38499 -3.46432 33036 ft 453 kts 102°
2026-05-06 16:25 43.37220 -3.38004 33035 ft 453 kts 102°
2026-05-06 16:26 43.35939 -3.29528 33027 ft 454 kts 101°
2026-05-06 16:26 43.34685 -3.21033 33034 ft 454 kts 101°
2026-05-06 16:27 43.33437 -3.12537 33026 ft 454 kts 101°
2026-05-06 16:27 43.32169 -3.04053 33019 ft 454 kts 102°
2026-05-06 16:28 43.30830 -2.95584 33021 ft 454 kts 107°
2026-05-06 16:28 43.28198 -2.87690 33022 ft 462 kts 124°
2026-05-06 16:29 43.24692 -2.80150 33032 ft 475 kts 123°
2026-05-06 16:29 43.21110 -2.72404 33024 ft 485 kts 123°
2026-05-06 16:30 43.18092 -2.65868 33033 ft 491 kts 123°
2026-05-06 16:30 43.13794 -2.56597 33042 ft 495 kts 124°
2026-05-06 16:31 43.10154 -2.48782 33027 ft 475 kts 124°
2026-05-06 16:31 43.08415 -2.45044 33026 ft 456 kts 124°
2026-05-06 16:31 43.06717 -2.41398 33028 ft 454 kts 124°
2026-05-06 16:32 43.03309 -2.34132 33035 ft 454 kts 124°
2026-05-06 16:32 42.99889 -2.26884 33030 ft 454 kts 124°
2026-05-06 16:33 42.96481 -2.19629 33021 ft 454 kts 124°
2026-05-06 16:34 42.91414 -2.08677 33027 ft 455 kts 124°
2026-05-06 16:34 42.88031 -2.01398 33009 ft 455 kts 124°
2026-05-06 16:35 42.84625 -1.94133 32998 ft 455 kts 125°
2026-05-06 16:35 42.81211 -1.86869 33000 ft 455 kts 125°
2026-05-06 16:36 42.77819 -1.79659 32994 ft 455 kts 125°
2026-05-06 16:36 42.74398 -1.72396 32997 ft 456 kts 125°
2026-05-06 16:37 42.71469 -1.64741 32989 ft 458 kts 117°
2026-05-06 16:37 42.68736 -1.56920 32994 ft 458 kts 118°
2026-05-06 16:38 42.65978 -1.49121 32983 ft 458 kts 118°
2026-05-06 16:38 42.63206 -1.41308 32983 ft 459 kts 118°
2026-05-06 16:39 42.60446 -1.33500 32972 ft 459 kts 118°
2026-05-06 16:39 42.57681 -1.25690 32970 ft 460 kts 118°
2026-05-06 16:40 42.54894 -1.17873 32966 ft 460 kts 119°
2026-05-06 16:40 42.52097 -1.10066 32964 ft 460 kts 119°
2026-05-06 16:41 42.49323 -1.02318 32963 ft 460 kts 119°
2026-05-06 16:41 42.46535 -0.94509 32961 ft 460 kts 119°
2026-05-06 16:42 42.43735 -0.86714 32952 ft 460 kts 119°
2026-05-06 16:42 42.40920 -0.78926 32941 ft 460 kts 120°
2026-05-06 16:43 42.38101 -0.71148 32933 ft 460 kts 120°
2026-05-06 16:43 42.35282 -0.63383 32923 ft 460 kts 120°
2026-05-06 16:44 42.32452 -0.55607 32928 ft 461 kts 120°
2026-05-06 16:44 42.29617 -0.47851 32936 ft 461 kts 120°
2026-05-06 16:45 42.26775 -0.40095 32935 ft 460 kts 120°
2026-05-06 16:45 42.23932 -0.32344 32938 ft 460 kts 120°
2026-05-06 16:46 42.21104 -0.24657 32944 ft 460 kts 121°
2026-05-06 16:46 42.18258 -0.16926 32944 ft 460 kts 121°
2026-05-06 16:47 42.15408 -0.09208 32932 ft 460 kts 121°
2026-05-06 16:47 42.12552 -0.01506 32917 ft 460 kts 121°
2026-05-06 16:48 42.09686 0.06196 32901 ft 460 kts 121°
2026-05-06 16:48 42.06814 0.13893 32885 ft 460 kts 121°
2026-05-06 16:49 42.03938 0.21581 32879 ft 460 kts 122°
2026-05-06 16:49 42.01061 0.29257 32890 ft 459 kts 122°
2026-05-06 16:50 41.98175 0.36916 32895 ft 459 kts 122°
2026-05-06 16:50 41.95308 0.44526 32903 ft 459 kts 122°
2026-05-06 16:51 41.92421 0.52176 32905 ft 459 kts 122°
2026-05-06 16:51 41.89531 0.59803 32907 ft 459 kts 122°
2026-05-06 16:52 41.86632 0.67429 32913 ft 458 kts 123°
2026-05-06 16:52 41.83735 0.75038 32905 ft 458 kts 123°
2026-05-06 16:53 41.80829 0.82645 32900 ft 458 kts 123°
2026-05-06 16:53 41.77917 0.90251 32899 ft 459 kts 123°
2026-05-06 16:54 41.75004 0.97849 32902 ft 459 kts 124°
2026-05-06 16:54 41.72094 1.05388 32907 ft 459 kts 124°
2026-05-06 16:55 41.69158 1.12982 32908 ft 459 kts 124°
2026-05-06 16:55 41.66223 1.20579 32901 ft 460 kts 125°
2026-05-06 16:56 41.63281 1.28162 32900 ft 460 kts 126°
2026-05-06 16:56 41.60325 1.35751 32892 ft 460 kts 126°
2026-05-06 16:57 41.57374 1.43325 32901 ft 459 kts 126°
2026-05-06 16:57 41.54416 1.50884 32896 ft 459 kts 126°
2026-05-06 16:58 41.51462 1.58416 32903 ft 458 kts 127°
2026-05-06 16:58 41.48501 1.65938 32903 ft 458 kts 127°
2026-05-06 16:59 41.45538 1.73450 32911 ft 457 kts 127°
2026-05-06 16:59 41.42577 1.80956 32903 ft 458 kts 127°
2026-05-06 17:00 41.39606 1.88469 32930 ft 458 kts 128°
2026-05-06 17:00 41.36625 1.95958 32930 ft 458 kts 128°
2026-05-06 17:01 41.33653 2.03396 32925 ft 458 kts 128°
2026-05-06 17:01 41.32029 2.06975 32920 ft 447 kts 137°
2026-05-06 17:01 41.30064 2.10103 32912 ft 434 kts 146°
2026-05-06 17:01 41.27794 2.12736 32907 ft 421 kts 155°
2026-05-06 17:02 41.25403 2.14773 32908 ft 410 kts 162°
2026-05-06 17:02 41.20382 2.18478 32904 ft 410 kts 162°
2026-05-06 17:03 41.17334 2.20742 32897 ft 411 kts 162°
2026-05-06 17:03 41.13506 2.23593 32899 ft 411 kts 162°
2026-05-06 17:04 41.08523 2.27296 32903 ft 411 kts 162°
2026-05-06 17:04 41.03527 2.30992 32899 ft 411 kts 162°
2026-05-06 17:05 40.98532 2.34684 32892 ft 411 kts 162°
2026-05-06 17:05 40.93536 2.38376 32902 ft 411 kts 162°
2026-05-06 17:06 40.88543 2.42055 32904 ft 411 kts 162°
2026-05-06 17:06 40.83550 2.45734 32893 ft 411 kts 162°
2026-05-06 17:07 40.78585 2.49387 32888 ft 411 kts 162°
2026-05-06 17:07 40.74399 2.52458 32886 ft 411 kts 162°
2026-05-06 17:07 40.71090 2.54883 32680 ft 408 kts 162°
2026-05-06 17:08 40.68623 2.56692 32348 ft 403 kts 162°
2026-05-06 17:08 40.66190 2.58479 31848 ft 398 kts 162°
2026-05-06 17:08 40.64562 2.59671 31515 ft 395 kts 162°
2026-05-06 17:08 40.62168 2.61420 31024 ft 391 kts 162°
2026-05-06 17:09 40.59798 2.63149 30541 ft 388 kts 162°
2026-05-06 17:09 40.57477 2.64838 30081 ft 385 kts 163°
2026-05-06 17:09 40.55148 2.66533 29561 ft 381 kts 163°
2026-05-06 17:09 40.52839 2.68211 29105 ft 376 kts 162°
2026-05-06 17:10 40.50560 2.69866 28646 ft 372 kts 162°
2026-05-06 17:10 40.48309 2.71504 28196 ft 368 kts 162°
2026-05-06 17:10 40.46083 2.73123 27785 ft 364 kts 162°
2026-05-06 17:10 40.43879 2.74722 27356 ft 359 kts 162°
2026-05-06 17:11 40.41706 2.76296 26944 ft 355 kts 162°
2026-05-06 17:11 40.39560 2.77848 26544 ft 351 kts 162°
2026-05-06 17:11 40.37426 2.79392 26144 ft 349 kts 162°
2026-05-06 17:11 40.35301 2.80924 25736 ft 348 kts 162°
2026-05-06 17:12 40.33182 2.82448 25330 ft 347 kts 162°
2026-05-06 17:12 40.31075 2.83965 24914 ft 345 kts 162°
2026-05-06 17:12 40.28970 2.85482 24491 ft 344 kts 161°
2026-05-06 17:12 40.26877 2.86991 24067 ft 343 kts 161°
2026-05-06 17:13 40.24791 2.88495 23639 ft 342 kts 161°
2026-05-06 17:13 40.22714 2.89991 23151 ft 340 kts 161°
2026-05-06 17:13 40.20648 2.91479 22705 ft 338 kts 161°
2026-05-06 17:13 40.18601 2.92959 22266 ft 335 kts 160°
2026-05-06 17:14 40.16565 2.94433 21837 ft 333 kts 160°
2026-05-06 17:14 40.14547 2.95890 21416 ft 331 kts 160°
2026-05-06 17:14 40.12537 2.97336 20993 ft 329 kts 160°
2026-05-06 17:14 40.10564 2.98754 20581 ft 327 kts 160°
2026-05-06 17:15 40.08575 3.00180 20147 ft 325 kts 161°
2026-05-06 17:15 40.06526 3.01270 19758 ft 313 kts 173°
2026-05-06 17:15 40.04436 3.01629 19570 ft 296 kts 190°
2026-05-06 17:15 40.02439 3.01124 19424 ft 285 kts 208°
2026-05-06 17:16 40.00798 2.99851 19120 ft 276 kts 225°
2026-05-06 17:16 39.99453 2.98086 18794 ft 273 kts 228°
2026-05-06 17:16 39.98129 2.96315 18455 ft 272 kts 228°
2026-05-06 17:16 39.96868 2.94638 18114 ft 272 kts 228°
2026-05-06 17:17 39.95841 2.93276 17842 ft 271 kts 228°
2026-05-06 17:17 39.94521 2.91526 17497 ft 270 kts 227°
2026-05-06 17:17 39.93207 2.89785 17165 ft 269 kts 227°
2026-05-06 17:17 39.91892 2.88048 16834 ft 268 kts 227°
2026-05-06 17:18 39.90584 2.86320 16510 ft 268 kts 227°
2026-05-06 17:18 39.89277 2.84597 16183 ft 267 kts 227°
2026-05-06 17:18 39.87978 2.82884 15856 ft 266 kts 227°
2026-05-06 17:18 39.86683 2.81173 15537 ft 265 kts 227°
2026-05-06 17:19 39.85386 2.79461 15215 ft 265 kts 227°
2026-05-06 17:19 39.84090 2.77753 14894 ft 265 kts 227°
2026-05-06 17:19 39.82799 2.76052 14571 ft 264 kts 226°
2026-05-06 17:19 39.81508 2.74353 14253 ft 264 kts 226°
2026-05-06 17:20 39.80218 2.72657 13930 ft 263 kts 226°
2026-05-06 17:20 39.78933 2.70969 13593 ft 262 kts 226°
2026-05-06 17:20 39.77651 2.69287 13254 ft 261 kts 226°
2026-05-06 17:20 39.76370 2.67604 12925 ft 262 kts 226°
2026-05-06 17:21 39.75090 2.65922 12607 ft 261 kts 226°
2026-05-06 17:21 39.73817 2.64252 12274 ft 260 kts 226°
2026-05-06 17:21 39.72541 2.62576 11943 ft 260 kts 226°
2026-05-06 17:21 39.71268 2.60905 11617 ft 259 kts 226°
2026-05-06 17:22 39.70003 2.59246 11279 ft 258 kts 226°
2026-05-06 17:22 39.68763 2.57623 10948 ft 256 kts 226°
2026-05-06 17:22 39.67513 2.55986 10620 ft 255 kts 226°
2026-05-06 17:22 39.66270 2.54361 10279 ft 253 kts 226°
2026-05-06 17:23 39.65016 2.52726 9937 ft 251 kts 226°
2026-05-06 17:23 39.63807 2.51152 9589 ft 248 kts 226°
2026-05-06 17:23 39.62595 2.49571 9236 ft 246 kts 227°
2026-05-06 17:23 39.61396 2.48005 8893 ft 243 kts 227°
2026-05-06 17:24 39.60212 2.46459 8555 ft 240 kts 227°
2026-05-06 17:24 39.59043 2.44938 8213 ft 237 kts 227°
2026-05-06 17:24 39.57890 2.43438 7971 ft 230 kts 227°
2026-05-06 17:24 39.56787 2.42006 7829 ft 221 kts 226°
2026-05-06 17:25 39.55530 2.40904 7539 ft 221 kts 199°
2026-05-06 17:25 39.53992 2.40650 7155 ft 227 kts 185°
2026-05-06 17:25 39.52388 2.40657 6604 ft 235 kts 182°
2026-05-06 17:25 39.50733 2.40698 6122 ft 239 kts 182°
2026-05-06 17:26 39.49065 2.40735 5730 ft 238 kts 182°
2026-05-06 17:26 39.47410 2.40769 5359 ft 237 kts 182°
2026-05-06 17:26 39.45781 2.41028 5000 ft 238 kts 160°
2026-05-06 17:26 39.44478 2.42275 4786 ft 235 kts 130°
2026-05-06 17:27 39.43705 2.44121 4533 ft 236 kts 107°
2026-05-06 17:27 39.43501 2.46215 4306 ft 236 kts 85°
2026-05-06 17:27 39.43898 2.48251 4044 ft 233 kts 62°
2026-05-06 17:27 39.44719 2.50041 3751 ft 231 kts 57°
2026-05-06 17:28 39.45562 2.51805 3453 ft 230 kts 57°
2026-05-06 17:28 39.46386 2.53533 3154 ft 220 kts 57°
2026-05-06 17:28 39.47170 2.55182 2871 ft 210 kts 57°
2026-05-06 17:28 39.47920 2.56758 2609 ft 201 kts 57°
2026-05-06 17:29 39.48623 2.58233 2345 ft 190 kts 58°
2026-05-06 17:29 39.49293 2.59644 2091 ft 178 kts 58°
2026-05-06 17:29 39.49918 2.60959 1870 ft 170 kts 58°
2026-05-06 17:29 39.50534 2.62256 1654 ft 166 kts 59°
2026-05-06 17:30 39.51107 2.63463 1435 ft 150 kts 59°
2026-05-06 17:30 39.51637 2.64579 1234 ft 144 kts 59°
2026-05-06 17:30 39.52160 2.65682 1034 ft 142 kts 58°
2026-05-06 17:30 39.52673 2.66763 832 ft 140 kts 58°
2026-05-06 17:31 39.53177 2.67828 644 ft 137 kts 57°
2026-05-06 17:31 39.53675 2.68881 455 ft 137 kts 57°
2026-05-06 17:31 39.54171 2.69923 265 ft 136 kts 55°
2026-05-06 17:31 39.54666 2.70975 99 ft 137 kts 57°
2026-05-06 17:32 39.55147 2.71970 38 ft 110 kts 59°
2026-05-06 17:32 39.55402 2.72510 38 ft 47 kts 59°
2026-05-06 17:32 39.55493 2.72842 38 ft 25 kts 88°
2026-05-06 17:32 39.55497 2.72984 38 ft 11 kts 88°
2026-05-06 17:33 39.55499 2.73027 38 ft 2 kts 88°
2026-05-06 17:33 39.55499 2.73029 38 ft 0 kts 88°
2026-05-06 17:34 39.55499 2.73054 37 ft 7 kts 88°
2026-05-06 17:34 39.55505 2.73157 38 ft 13 kts 79°
2026-05-06 17:34 39.55543 2.73266 38 ft 17 kts 58°
2026-05-06 17:34 39.55608 2.73403 37 ft 15 kts 58°
2026-05-06 17:35 39.55601 2.73514 37 ft 13 kts 140°
2026-05-06 17:35 39.55502 2.73594 38 ft 23 kts 148°
2026-05-06 17:35 39.55360 2.73705 38 ft 25 kts 149°
2026-05-06 17:36 39.55056 2.73946 38 ft 24 kts 149°
2026-05-06 17:36 39.54919 2.74052 37 ft 21 kts 148°
2026-05-06 17:36 39.54808 2.74121 38 ft 15 kts 188°
2026-05-06 17:36 39.54745 2.74033 38 ft 13 kts 239°
2026-05-06 17:37 39.54701 2.73940 38 ft 11 kts 239°
2026-05-06 17:37 39.54662 2.73857 38 ft 10 kts 238°
2026-05-06 17:37 39.54627 2.73784 38 ft 9 kts 238°
2026-05-06 17:37 39.54585 2.73692 38 ft 9 kts 253°
2026-05-06 17:38 39.54608 2.73624 38 ft 11 kts 303°
2026-05-06 17:38 39.54656 2.73529 38 ft 13 kts 325°
2026-05-06 17:38 39.54720 2.73475 38 ft 7 kts 310°
2026-05-06 17:38 39.54710 2.73424 38 ft 5 kts 242°
2026-05-06 17:39 39.54697 2.73395 38 ft 1 kts 239°
2026-05-06 17:39 39.54695 2.73392 38 ft 0 kts 239°
2026-05-06 17:39 39.54695 2.73390 38 ft 0 kts 240°